<?xml version="1.0"?>
<gpx xmlns="http://www.topografix.com/GPX/1/1" xmlns:xsi="http://www.w3.org/2001/XMLSchema-instance" version="1.1" creator="GPX RubyGem 1.0.0 -- http://dougfales.github.io/gpx/" xsi:schemaLocation="http://www.topografix.com/GPX/1/1 http://www.topografix.com/GPX/1/1/gpx.xsd">
  <metadata>
    <name/>
    <time>2026-05-08T07:20:06+00:00</time>
    <bound minlat="90.0" minlon="180.0" maxlat="-90.0" maxlon="-180.0"/>
  </metadata>
  <trk>
    <name/>
    <trkseg>
      <trkpt lat="44.963326" lon="6.611176">
        <time>1970-01-01T00:00:00+00:00</time>
        <ele>2403.0</ele>
      </trkpt>
      <trkpt lat="44.96342" lon="6.611212">
        <time>1970-01-01T00:00:00+00:00</time>
        <ele>2402.0</ele>
      </trkpt>
      <trkpt lat="44.963265" lon="6.611466">
        <time>1970-01-01T00:00:00+00:00</time>
        <ele>2403.0</ele>
      </trkpt>
      <trkpt lat="44.963167" lon="6.611566">
        <time>1970-01-01T00:00:00+00:00</time>
        <ele>2406.0</ele>
      </trkpt>
      <trkpt lat="44.96308" lon="6.611723">
        <time>1970-01-01T00:00:00+00:00</time>
        <ele>2409.0</ele>
      </trkpt>
      <trkpt lat="44.963063" lon="6.611848">
        <time>1970-01-01T00:00:00+00:00</time>
        <ele>2411.0</ele>
      </trkpt>
      <trkpt lat="44.962979" lon="6.612097">
        <time>1970-01-01T00:00:00+00:00</time>
        <ele>2413.0</ele>
      </trkpt>
      <trkpt lat="44.962957" lon="6.612292">
        <time>1970-01-01T00:00:00+00:00</time>
        <ele>2415.0</ele>
      </trkpt>
      <trkpt lat="44.962894" lon="6.612419">
        <time>1970-01-01T00:00:00+00:00</time>
        <ele>2418.0</ele>
      </trkpt>
      <trkpt lat="44.962901" lon="6.612504">
        <time>1970-01-01T00:00:00+00:00</time>
        <ele>2420.0</ele>
      </trkpt>
      <trkpt lat="44.962933" lon="6.612575">
        <time>1970-01-01T00:00:00+00:00</time>
        <ele>2421.0</ele>
      </trkpt>
      <trkpt lat="44.9629" lon="6.612662">
        <time>1970-01-01T00:00:00+00:00</time>
        <ele>2424.0</ele>
      </trkpt>
      <trkpt lat="44.963046" lon="6.61311">
        <time>1970-01-01T00:00:00+00:00</time>
        <ele>2431.0</ele>
      </trkpt>
      <trkpt lat="44.963084" lon="6.613485">
        <time>1970-01-01T00:00:00+00:00</time>
        <ele>2437.0</ele>
      </trkpt>
      <trkpt lat="44.963077" lon="6.613802">
        <time>1970-01-01T00:00:00+00:00</time>
        <ele>2442.0</ele>
      </trkpt>
      <trkpt lat="44.963058" lon="6.613869">
        <time>1970-01-01T00:00:00+00:00</time>
        <ele>2443.0</ele>
      </trkpt>
      <trkpt lat="44.963003" lon="6.613947">
        <time>1970-01-01T00:00:00+00:00</time>
        <ele>2444.0</ele>
      </trkpt>
      <trkpt lat="44.962999" lon="6.614016">
        <time>1970-01-01T00:00:00+00:00</time>
        <ele>2445.0</ele>
      </trkpt>
      <trkpt lat="44.963053" lon="6.614147">
        <time>1970-01-01T00:00:00+00:00</time>
        <ele>2447.0</ele>
      </trkpt>
      <trkpt lat="44.963048" lon="6.614231">
        <time>1970-01-01T00:00:00+00:00</time>
        <ele>2449.0</ele>
      </trkpt>
      <trkpt lat="44.962986" lon="6.614389">
        <time>1970-01-01T00:00:00+00:00</time>
        <ele>2452.0</ele>
      </trkpt>
      <trkpt lat="44.962912" lon="6.614746">
        <time>1970-01-01T00:00:00+00:00</time>
        <ele>2460.0</ele>
      </trkpt>
      <trkpt lat="44.962931" lon="6.614891">
        <time>1970-01-01T00:00:00+00:00</time>
        <ele>2463.0</ele>
      </trkpt>
      <trkpt lat="44.962794" lon="6.615014">
        <time>1970-01-01T00:00:00+00:00</time>
        <ele>2468.0</ele>
      </trkpt>
      <trkpt lat="44.962885" lon="6.615159">
        <time>1970-01-01T00:00:00+00:00</time>
        <ele>2472.0</ele>
      </trkpt>
      <trkpt lat="44.962888" lon="6.615212">
        <time>1970-01-01T00:00:00+00:00</time>
        <ele>2473.0</ele>
      </trkpt>
      <trkpt lat="44.962843" lon="6.615234">
        <time>1970-01-01T00:00:00+00:00</time>
        <ele>2475.0</ele>
      </trkpt>
      <trkpt lat="44.962885" lon="6.615325">
        <time>1970-01-01T00:00:00+00:00</time>
        <ele>2477.0</ele>
      </trkpt>
      <trkpt lat="44.962828" lon="6.615357">
        <time>1970-01-01T00:00:00+00:00</time>
        <ele>2480.0</ele>
      </trkpt>
      <trkpt lat="44.96285" lon="6.615469">
        <time>1970-01-01T00:00:00+00:00</time>
        <ele>2483.0</ele>
      </trkpt>
      <trkpt lat="44.962802" lon="6.615475">
        <time>1970-01-01T00:00:00+00:00</time>
        <ele>2484.0</ele>
      </trkpt>
      <trkpt lat="44.962767" lon="6.615642">
        <time>1970-01-01T00:00:00+00:00</time>
        <ele>2491.0</ele>
      </trkpt>
      <trkpt lat="44.962733" lon="6.615636">
        <time>1970-01-01T00:00:00+00:00</time>
        <ele>2491.0</ele>
      </trkpt>
      <trkpt lat="44.962748" lon="6.615743">
        <time>1970-01-01T00:00:00+00:00</time>
        <ele>2495.0</ele>
      </trkpt>
      <trkpt lat="44.96268" lon="6.615953">
        <time>1970-01-01T00:00:00+00:00</time>
        <ele>2503.0</ele>
      </trkpt>
      <trkpt lat="44.962597" lon="6.616071">
        <time>1970-01-01T00:00:00+00:00</time>
        <ele>2507.0</ele>
      </trkpt>
      <trkpt lat="44.962574" lon="6.6165">
        <time>1970-01-01T00:00:00+00:00</time>
        <ele>2507.0</ele>
      </trkpt>
      <trkpt lat="44.962622" lon="6.616642">
        <time>1970-01-01T00:00:00+00:00</time>
        <ele>2508.0</ele>
      </trkpt>
      <trkpt lat="44.962602" lon="6.616869">
        <time>1970-01-01T00:00:00+00:00</time>
        <ele>2505.0</ele>
      </trkpt>
      <trkpt lat="44.962617" lon="6.617119">
        <time>1970-01-01T00:00:00+00:00</time>
        <ele>2501.0</ele>
      </trkpt>
      <trkpt lat="44.962596" lon="6.617357">
        <time>1970-01-01T00:00:00+00:00</time>
        <ele>2492.0</ele>
      </trkpt>
      <trkpt lat="44.962609" lon="6.617471">
        <time>1970-01-01T00:00:00+00:00</time>
        <ele>2488.0</ele>
      </trkpt>
      <trkpt lat="44.962529" lon="6.617566">
        <time>1970-01-01T00:00:00+00:00</time>
        <ele>2484.0</ele>
      </trkpt>
      <trkpt lat="44.962486" lon="6.617691">
        <time>1970-01-01T00:00:00+00:00</time>
        <ele>2480.0</ele>
      </trkpt>
      <trkpt lat="44.962488" lon="6.617763">
        <time>1970-01-01T00:00:00+00:00</time>
        <ele>2478.0</ele>
      </trkpt>
      <trkpt lat="44.962403" lon="6.617909">
        <time>1970-01-01T00:00:00+00:00</time>
        <ele>2472.0</ele>
      </trkpt>
      <trkpt lat="44.962387" lon="6.618316">
        <time>1970-01-01T00:00:00+00:00</time>
        <ele>2455.0</ele>
      </trkpt>
      <trkpt lat="44.962255" lon="6.618574">
        <time>1970-01-01T00:00:00+00:00</time>
        <ele>2449.0</ele>
      </trkpt>
      <trkpt lat="44.962249" lon="6.618755">
        <time>1970-01-01T00:00:00+00:00</time>
        <ele>2443.0</ele>
      </trkpt>
      <trkpt lat="44.962063" lon="6.61903">
        <time>1970-01-01T00:00:00+00:00</time>
        <ele>2434.0</ele>
      </trkpt>
      <trkpt lat="44.962029" lon="6.619157">
        <time>1970-01-01T00:00:00+00:00</time>
        <ele>2430.0</ele>
      </trkpt>
      <trkpt lat="44.961937" lon="6.619256">
        <time>1970-01-01T00:00:00+00:00</time>
        <ele>2426.0</ele>
      </trkpt>
      <trkpt lat="44.961811" lon="6.619325">
        <time>1970-01-01T00:00:00+00:00</time>
        <ele>2424.0</ele>
      </trkpt>
      <trkpt lat="44.961557" lon="6.619338">
        <time>1970-01-01T00:00:00+00:00</time>
        <ele>2427.0</ele>
      </trkpt>
      <trkpt lat="44.961469" lon="6.619498">
        <time>1970-01-01T00:00:00+00:00</time>
        <ele>2427.0</ele>
      </trkpt>
      <trkpt lat="44.961383" lon="6.619736">
        <time>1970-01-01T00:00:00+00:00</time>
        <ele>2425.0</ele>
      </trkpt>
      <trkpt lat="44.961333" lon="6.62067">
        <time>1970-01-01T00:00:00+00:00</time>
        <ele>2428.0</ele>
      </trkpt>
      <trkpt lat="44.961298" lon="6.620837">
        <time>1970-01-01T00:00:00+00:00</time>
        <ele>2430.0</ele>
      </trkpt>
      <trkpt lat="44.961289" lon="6.621073">
        <time>1970-01-01T00:00:00+00:00</time>
        <ele>2434.0</ele>
      </trkpt>
      <trkpt lat="44.961348" lon="6.621501">
        <time>1970-01-01T00:00:00+00:00</time>
        <ele>2442.0</ele>
      </trkpt>
      <trkpt lat="44.961448" lon="6.621834">
        <time>1970-01-01T00:00:00+00:00</time>
        <ele>2446.0</ele>
      </trkpt>
      <trkpt lat="44.961466" lon="6.622138">
        <time>1970-01-01T00:00:00+00:00</time>
        <ele>2451.0</ele>
      </trkpt>
      <trkpt lat="44.961211" lon="6.623357">
        <time>1970-01-01T00:00:00+00:00</time>
        <ele>2464.0</ele>
      </trkpt>
      <trkpt lat="44.961135" lon="6.62365">
        <time>1970-01-01T00:00:00+00:00</time>
        <ele>2466.0</ele>
      </trkpt>
      <trkpt lat="44.961135" lon="6.62365">
        <time>1970-01-01T00:00:00+00:00</time>
        <ele>2466.0</ele>
      </trkpt>
      <trkpt lat="44.961211" lon="6.623357">
        <time>1970-01-01T00:00:00+00:00</time>
        <ele>2464.0</ele>
      </trkpt>
      <trkpt lat="44.961466" lon="6.622138">
        <time>1970-01-01T00:00:00+00:00</time>
        <ele>2451.0</ele>
      </trkpt>
      <trkpt lat="44.961448" lon="6.621834">
        <time>1970-01-01T00:00:00+00:00</time>
        <ele>2446.0</ele>
      </trkpt>
      <trkpt lat="44.961348" lon="6.621501">
        <time>1970-01-01T00:00:00+00:00</time>
        <ele>2442.0</ele>
      </trkpt>
      <trkpt lat="44.961289" lon="6.621073">
        <time>1970-01-01T00:00:00+00:00</time>
        <ele>2434.0</ele>
      </trkpt>
      <trkpt lat="44.961298" lon="6.620837">
        <time>1970-01-01T00:00:00+00:00</time>
        <ele>2430.0</ele>
      </trkpt>
      <trkpt lat="44.961333" lon="6.62067">
        <time>1970-01-01T00:00:00+00:00</time>
        <ele>2428.0</ele>
      </trkpt>
      <trkpt lat="44.961383" lon="6.619736">
        <time>1970-01-01T00:00:00+00:00</time>
        <ele>2425.0</ele>
      </trkpt>
      <trkpt lat="44.961469" lon="6.619498">
        <time>1970-01-01T00:00:00+00:00</time>
        <ele>2427.0</ele>
      </trkpt>
      <trkpt lat="44.961557" lon="6.619338">
        <time>1970-01-01T00:00:00+00:00</time>
        <ele>2427.0</ele>
      </trkpt>
      <trkpt lat="44.961811" lon="6.619325">
        <time>1970-01-01T00:00:00+00:00</time>
        <ele>2424.0</ele>
      </trkpt>
      <trkpt lat="44.961937" lon="6.619256">
        <time>1970-01-01T00:00:00+00:00</time>
        <ele>2426.0</ele>
      </trkpt>
      <trkpt lat="44.962029" lon="6.619157">
        <time>1970-01-01T00:00:00+00:00</time>
        <ele>2430.0</ele>
      </trkpt>
      <trkpt lat="44.962063" lon="6.61903">
        <time>1970-01-01T00:00:00+00:00</time>
        <ele>2434.0</ele>
      </trkpt>
      <trkpt lat="44.962249" lon="6.618755">
        <time>1970-01-01T00:00:00+00:00</time>
        <ele>2443.0</ele>
      </trkpt>
      <trkpt lat="44.962255" lon="6.618574">
        <time>1970-01-01T00:00:00+00:00</time>
        <ele>2449.0</ele>
      </trkpt>
      <trkpt lat="44.962387" lon="6.618316">
        <time>1970-01-01T00:00:00+00:00</time>
        <ele>2455.0</ele>
      </trkpt>
      <trkpt lat="44.962403" lon="6.617909">
        <time>1970-01-01T00:00:00+00:00</time>
        <ele>2472.0</ele>
      </trkpt>
      <trkpt lat="44.962488" lon="6.617763">
        <time>1970-01-01T00:00:00+00:00</time>
        <ele>2478.0</ele>
      </trkpt>
      <trkpt lat="44.962486" lon="6.617691">
        <time>1970-01-01T00:00:00+00:00</time>
        <ele>2480.0</ele>
      </trkpt>
      <trkpt lat="44.962529" lon="6.617566">
        <time>1970-01-01T00:00:00+00:00</time>
        <ele>2484.0</ele>
      </trkpt>
      <trkpt lat="44.962609" lon="6.617471">
        <time>1970-01-01T00:00:00+00:00</time>
        <ele>2488.0</ele>
      </trkpt>
      <trkpt lat="44.962596" lon="6.617357">
        <time>1970-01-01T00:00:00+00:00</time>
        <ele>2492.0</ele>
      </trkpt>
      <trkpt lat="44.962617" lon="6.617119">
        <time>1970-01-01T00:00:00+00:00</time>
        <ele>2501.0</ele>
      </trkpt>
      <trkpt lat="44.962602" lon="6.616869">
        <time>1970-01-01T00:00:00+00:00</time>
        <ele>2505.0</ele>
      </trkpt>
      <trkpt lat="44.962622" lon="6.616642">
        <time>1970-01-01T00:00:00+00:00</time>
        <ele>2508.0</ele>
      </trkpt>
      <trkpt lat="44.962574" lon="6.6165">
        <time>1970-01-01T00:00:00+00:00</time>
        <ele>2507.0</ele>
      </trkpt>
      <trkpt lat="44.962597" lon="6.616071">
        <time>1970-01-01T00:00:00+00:00</time>
        <ele>2507.0</ele>
      </trkpt>
      <trkpt lat="44.96268" lon="6.615953">
        <time>1970-01-01T00:00:00+00:00</time>
        <ele>2503.0</ele>
      </trkpt>
      <trkpt lat="44.962748" lon="6.615743">
        <time>1970-01-01T00:00:00+00:00</time>
        <ele>2495.0</ele>
      </trkpt>
      <trkpt lat="44.962733" lon="6.615636">
        <time>1970-01-01T00:00:00+00:00</time>
        <ele>2491.0</ele>
      </trkpt>
      <trkpt lat="44.962767" lon="6.615642">
        <time>1970-01-01T00:00:00+00:00</time>
        <ele>2491.0</ele>
      </trkpt>
      <trkpt lat="44.962802" lon="6.615475">
        <time>1970-01-01T00:00:00+00:00</time>
        <ele>2484.0</ele>
      </trkpt>
      <trkpt lat="44.96285" lon="6.615469">
        <time>1970-01-01T00:00:00+00:00</time>
        <ele>2483.0</ele>
      </trkpt>
      <trkpt lat="44.962828" lon="6.615357">
        <time>1970-01-01T00:00:00+00:00</time>
        <ele>2480.0</ele>
      </trkpt>
      <trkpt lat="44.962885" lon="6.615325">
        <time>1970-01-01T00:00:00+00:00</time>
        <ele>2477.0</ele>
      </trkpt>
      <trkpt lat="44.962843" lon="6.615234">
        <time>1970-01-01T00:00:00+00:00</time>
        <ele>2475.0</ele>
      </trkpt>
      <trkpt lat="44.962888" lon="6.615212">
        <time>1970-01-01T00:00:00+00:00</time>
        <ele>2473.0</ele>
      </trkpt>
      <trkpt lat="44.962885" lon="6.615159">
        <time>1970-01-01T00:00:00+00:00</time>
        <ele>2472.0</ele>
      </trkpt>
      <trkpt lat="44.962794" lon="6.615014">
        <time>1970-01-01T00:00:00+00:00</time>
        <ele>2468.0</ele>
      </trkpt>
      <trkpt lat="44.962931" lon="6.614891">
        <time>1970-01-01T00:00:00+00:00</time>
        <ele>2463.0</ele>
      </trkpt>
      <trkpt lat="44.962912" lon="6.614746">
        <time>1970-01-01T00:00:00+00:00</time>
        <ele>2460.0</ele>
      </trkpt>
      <trkpt lat="44.962986" lon="6.614389">
        <time>1970-01-01T00:00:00+00:00</time>
        <ele>2452.0</ele>
      </trkpt>
      <trkpt lat="44.963048" lon="6.614231">
        <time>1970-01-01T00:00:00+00:00</time>
        <ele>2449.0</ele>
      </trkpt>
      <trkpt lat="44.963053" lon="6.614147">
        <time>1970-01-01T00:00:00+00:00</time>
        <ele>2447.0</ele>
      </trkpt>
      <trkpt lat="44.962999" lon="6.614016">
        <time>1970-01-01T00:00:00+00:00</time>
        <ele>2445.0</ele>
      </trkpt>
      <trkpt lat="44.963003" lon="6.613947">
        <time>1970-01-01T00:00:00+00:00</time>
        <ele>2444.0</ele>
      </trkpt>
      <trkpt lat="44.963058" lon="6.613869">
        <time>1970-01-01T00:00:00+00:00</time>
        <ele>2443.0</ele>
      </trkpt>
      <trkpt lat="44.963077" lon="6.613802">
        <time>1970-01-01T00:00:00+00:00</time>
        <ele>2442.0</ele>
      </trkpt>
      <trkpt lat="44.963084" lon="6.613485">
        <time>1970-01-01T00:00:00+00:00</time>
        <ele>2437.0</ele>
      </trkpt>
      <trkpt lat="44.963046" lon="6.61311">
        <time>1970-01-01T00:00:00+00:00</time>
        <ele>2431.0</ele>
      </trkpt>
      <trkpt lat="44.9629" lon="6.612662">
        <time>1970-01-01T00:00:00+00:00</time>
        <ele>2424.0</ele>
      </trkpt>
      <trkpt lat="44.962933" lon="6.612575">
        <time>1970-01-01T00:00:00+00:00</time>
        <ele>2421.0</ele>
      </trkpt>
      <trkpt lat="44.962901" lon="6.612504">
        <time>1970-01-01T00:00:00+00:00</time>
        <ele>2420.0</ele>
      </trkpt>
      <trkpt lat="44.962894" lon="6.612419">
        <time>1970-01-01T00:00:00+00:00</time>
        <ele>2418.0</ele>
      </trkpt>
      <trkpt lat="44.962957" lon="6.612292">
        <time>1970-01-01T00:00:00+00:00</time>
        <ele>2415.0</ele>
      </trkpt>
      <trkpt lat="44.962979" lon="6.612097">
        <time>1970-01-01T00:00:00+00:00</time>
        <ele>2413.0</ele>
      </trkpt>
      <trkpt lat="44.963063" lon="6.611848">
        <time>1970-01-01T00:00:00+00:00</time>
        <ele>2411.0</ele>
      </trkpt>
      <trkpt lat="44.96308" lon="6.611723">
        <time>1970-01-01T00:00:00+00:00</time>
        <ele>2409.0</ele>
      </trkpt>
      <trkpt lat="44.963167" lon="6.611566">
        <time>1970-01-01T00:00:00+00:00</time>
        <ele>2406.0</ele>
      </trkpt>
      <trkpt lat="44.963265" lon="6.611466">
        <time>1970-01-01T00:00:00+00:00</time>
        <ele>2403.0</ele>
      </trkpt>
      <trkpt lat="44.96342" lon="6.611212">
        <time>1970-01-01T00:00:00+00:00</time>
        <ele>2402.0</ele>
      </trkpt>
      <trkpt lat="44.963326" lon="6.611176">
        <time>1970-01-01T00:00:00+00:00</time>
        <ele>2403.0</ele>
      </trkpt>
    </trkseg>
  </trk>
</gpx>
